Regional Weather Roundup
Issued by NWS Little Rock, AR

Home | Current Version | Previous Version | Text Only | Print | Product List | Glossary On
Versions: 1 2 3 4 5 6 7 8 9 10 11 12 13 14 15 16 17 18 19 20 21 22 23 24 25 26 27 28 29 30 31 32 33 34 35 36 37 38 39 40 41 42 43 44 45 46 47 48 49 50
000
ASUS44 KLZK 310005
RWRLZK

WEATHER ROUNDUP FOR ARKANSAS
NATIONAL WEATHER SERVICE LITTLE ROCK AR
700 PM CDT WED JUL 30 2014

NOTE: "FAIR" INDICATES FEW OR NO CLOUDS BELOW 12,000 FEET WITH NO
SIGNIFICANT WEATHER AND/OR OBSTRUCTIONS TO VISIBILITY.

ARZ001-003-010-029-310100-
NORTHWEST ARKANSAS

CITY           SKY/WX    TMP DP  RH WIND       PRES   REMARKS
FAYETTEVILLE   LGT RAIN  68  67  96 E5        30.07F
6HR MIN TEMP:  68; 6HR MAX TEMP:  70; 6HR PCP:  1.04;

FORT SMITH     LGT RAIN  71  69  93 E8        30.03F FOG
6HR MIN TEMP:  71; 6HR MAX TEMP:  73; 6HR PCP:  0.29;

HARRISON       LGT RAIN  66  66 100 W3        30.10F
6HR MIN TEMP:  64; 6HR MAX TEMP:  66; 6HR PCP:  1.79;

BENTONVILLE    CLOUDY    64  61  88 E8        30.10S
6HR MIN TEMP:  64; 6HR MAX TEMP:  72; 6HR PCP:  0.90;

ROGERS         RAIN      65  63  93 E7        30.10F VSB 1
6HR MIN TEMP:  64; 6HR MAX TEMP:  71; 6HR PCP:  1.25;

SILOAM SPGS    CLOUDY    66  61  82 E6        30.07F
6HR MIN TEMP:  66; 6HR MAX TEMP:  70; 6HR PCP:  1.34;

HIGHFILL       HVY RAIN  64 N/A N/A E7        30.08F
6HR MIN TEMP:  65; 6HR MAX TEMP:  71; 6HR PCP:  0.62;

SPRINGDALE     LGT RAIN  64  64 100 NE9       30.10F FOG
$$

ARZ004-005-016-310100-
NORTH CENTRAL ARKANSAS

CITY           SKY/WX    TMP DP  RH WIND       PRES   REMARKS
BATESVILLE     CLOUDY    70  68  94 W6        30.08S
6HR MIN TEMP:  68; 6HR MAX TEMP:  77; 6HR PCP:  0.10;

FLIPPIN        CLOUDY    68  66  94 CALM      30.08F
6HR MIN TEMP:  68; 6HR MAX TEMP:  70; 6HR PCP:  0.64;

MTN HOME       LGT RAIN  68  67  96 CALM      30.07F
6HR MIN TEMP:  67; 6HR MAX TEMP:  68;

$$

ARZ040-041-310100-
WEST CENTRAL ARKANSAS

CITY           SKY/WX    TMP DP  RH WIND       PRES   REMARKS
MENA           CLOUDY    72  70  94 CALM      30.07F
MOUNT IDA      LGT RAIN  68  66  93 CALM      30.06F FOG
6HR MIN TEMP:  68; 6HR MAX TEMP:  73; 6HR PCP:  0.12;

$$

ARZ009-017-025-026-028-310100-
NORTHEAST ARKANSAS

CITY           SKY/WX    TMP DP  RH WIND       PRES   REMARKS
JONESBORO      CLOUDY    74  61  63 NW3       30.06F
6HR MIN TEMP:  74; 6HR MAX TEMP:  81;

NEWPORT        LGT RAIN  73  65  76 W8        30.08S
6HR MIN TEMP:  73; 6HR MAX TEMP:  83; 6HR PCP: TRACE;

WALNUT RIDGE   CLOUDY    73  61  64 W7        30.07S
6HR MIN TEMP:  73; 6HR MAX TEMP:  79;

BLYTHEVILLE    CLOUDY    78  60  53 CALM      30.06F
6HR MIN TEMP:  78; 6HR MAX TEMP:  81;

$$

ARZ022-023-033-042-044-310100-
CENTRAL ARKANSAS

CITY           SKY/WX    TMP DP  RH WIND       PRES   REMARKS
LITTLE ROCK    LGT RAIN  71  62  73 CALM      30.09F
6HR MIN TEMP:  71; 6HR MAX TEMP:  81; 6HR PCP:  0.01;

N LITTLE ROCK  CLOUDY    68  67  96 N3        30.09F
6HR MIN TEMP:  68; 6HR MAX TEMP:  80;

JACKSONVILLE   CLOUDY    70  65  84 W5        30.09S
6HR MIN TEMP:  70; 6HR MAX TEMP:  82; 6HR PCP: TRACE;

SEARCY         CLOUDY    71  67  87 W3        30.09F
6HR MIN TEMP:  71; 6HR MAX TEMP:  79; 6HR PCP:  0.01;

HOT SPRINGS    LGT RAIN  69  65  86 CALM      30.09S
6HR MIN TEMP:  69; 6HR MAX TEMP:  73; 6HR PCP:  0.08;

RUSSELLVILLE   RAIN      70  67  90 CALM      30.08S FOG
6HR MIN TEMP:  69; 6HR MAX TEMP:  74; 6HR PCP:  0.13;

CLINTON        LGT RAIN  70  70 100 CALM      30.09S
$$

ARZ036-310100-
EAST ARKANSAS

CITY           SKY/WX    TMP DP  RH WIND       PRES   REMARKS
WEST MEMPHIS   CLOUDY    76  65  68 CALM      30.05S
6HR MIN TEMP:  76; 6HR MAX TEMP:  82;

$$

ARZ050-053-066-070-073-310100-
SOUTHWEST ARKANSAS

CITY           SKY/WX    TMP DP  RH WIND       PRES   REMARKS
ARKADELPHIA    FAIR      72  70  93 NE5       30.08S
6HR MIN TEMP:  71; 6HR MAX TEMP:  77; 6HR PCP:  0.05;

CAMDEN         LGT RAIN  72  68  88 NE3       30.07S
TEXARKANA      CLOUDY    72  69  90 NE5       30.04R
6HR MIN TEMP:  72; 6HR MAX TEMP:  79; 6HR PCP:  0.05;

EL DORADO      LGT RAIN  73  70  90 NE8       30.06F
6HR MIN TEMP:  73; 6HR MAX TEMP:  80; 6HR PCP:  0.01;

DE QUEEN       LGT RAIN  70  68  93 E8        30.02F FOG
6HR MIN TEMP:  70; 6HR MAX TEMP:  74; 6HR PCP:  0.05;

$$

ARZ056-057-069-310100-
SOUTHEAST ARKANSAS

CITY           SKY/WX    TMP DP  RH WIND       PRES   REMARKS
PINE BLUFF     LGT RAIN  71  67  87 NW5       30.08F
6HR MIN TEMP:  71; 6HR MAX TEMP:  79; 6HR PCP:  0.03;

STUTTGART      CLOUDY    73  64  73 W5        30.09S
6HR MIN TEMP:  73; 6HR MAX TEMP:  84;

MONTICELLO     LGT RAIN  71  64  78 CALM      30.07F
6HR MIN TEMP:  71; 6HR MAX TEMP:  81; 6HR PCP:  0.02;


$$




USA.gov is the U.S. government's official web portal to all federal, state and local government web resources and services.